Bettles, AK

6:09 AM AKDT on July 20, 2019 (GMT -0800)
Bettles

Weather History for PABT - May, 2019

Change the Weather History Date:

Sunday, May 12, 2019

  Actual Average Record
Temperature  
Mean Temperature 42 °F -  
Max Temperature 48 °F 50 °F 66 °F (1999)
Min Temperature 36 °F 31 °F 16 °F (2013)
Degree Days  
Heating Degree Days 23    
Moisture  
Dew Point 33 °F    
Average Humidity 72    
Maximum Humidity 97    
Minimum Humidity 39    
Precipitation  
Precipitation 0.02 in - - ()
Snow  
Snow 0.00 in - - ()
Snow Depth 18.00 in    
Sea Level Pressure  
Sea Level Pressure 29.96 in    
Wind  
Wind Speed 5 mph (SSE)    
Max Wind Speed 10 mph    
Max Gust Speed -    
Visibility 9 miles    
Events Fog , Rain    
Averages and records for this station are not official NWS values.
T = Trace of Precipitation, MM = Missing Value Source: NWS Daily Summary

Daily Weather History Graph

Daily Weather History Graph

Search for Another Location

Airport or City:

Astronomy

May. 12, 2019 Rise Set
Actual Time 4:27 AM AKDT 11:41 PM AKDT
Civil Twilight 2:34 AM AKDT 1:30 AM AKDT
Nautical Twilight Sun does not set Sun does not set
Astronomical Twilight Sun does not set Sun does not set
Moon 12:49 PM AKDT (5/12) 5:26 AM AKDT (5/12)
Length of Visible Light 22h 55m
Length of Day
19h 14m
First Quarter, 59% of the Moon is Illuminated
May 12
First Quarter
May 18
Full
May 26
Last Quarter
Jun 3
New
Jun 9
First Quarter

Hourly Weather History & Observations

Time (AKDT) Temp. Windchill Dew Point Humidity Pressure Visibility Wind Dir Wind Speed Gust Speed Precip Events Conditions
12:51 AM 41.0 °F 37.1 °F 33.8 °F 76% 29.81 in 10.0 mi South 5.8 mph - N/A   Overcast
12:53 AM 41.0 °F 37.1 °F 33.1 °F 73% 29.84 in 10.0 mi South 5.8 mph - N/A   Overcast
1:26 AM 39.0 °F 35.7 °F 33.1 °F 79% 29.82 in 10.0 mi SSE 4.6 mph - N/A Fog Overcast
1:53 AM 37.9 °F 34.4 °F 34.0 °F 86% 29.87 in 10.0 mi South 4.6 mph - 0.00 in Fog Light Drizzle
2:53 AM 37.9 °F 35.5 °F 35.1 °F 89% 29.89 in 10.0 mi SE 3.5 mph - 0.00 in Fog Light Drizzle
3:18 AM 36.0 °F 32.1 °F 35.1 °F 97% 29.87 in 7.0 mi SE 4.6 mph - 0.00 in Fog , Rain Light Rain
3:53 AM 36.0 °F 33.3 °F 35.1 °F 97% 29.91 in 4.0 mi SE 3.5 mph - 0.01 in Rain Light Rain
4:53 AM 37.0 °F 33.3 °F 35.1 °F 93% 29.93 in 5.0 mi SSE 4.6 mph - 0.01 in Rain Light Rain
5:21 AM 37.0 °F 33.3 °F 35.1 °F 93% 29.90 in 5.0 mi SSE 4.6 mph - 0.00 in   Overcast
5:53 AM 37.0 °F 32.4 °F 35.1 °F 93% 29.94 in 5.0 mi South 5.8 mph - 0.00 in   Overcast
6:53 AM 37.9 °F - 36.0 °F 93% 29.95 in 10.0 mi Calm Calm - N/A Fog Patches of Fog
7:20 AM 37.9 °F 35.5 °F 35.1 °F 89% 29.93 in 10.0 mi SSE 3.5 mph - N/A Fog Patches of Fog
7:53 AM 39.9 °F 35.8 °F 36.0 °F 86% 29.97 in 10.0 mi South 5.8 mph - N/A Fog Patches of Fog
8:53 AM 41.0 °F 38.0 °F 35.1 °F 79% 29.99 in 10.0 mi SE 4.6 mph - N/A   Partly Cloudy
9:53 AM 42.1 °F 39.2 °F 35.1 °F 76% 30.00 in 10.0 mi Variable 4.6 mph - N/A   Partly Cloudy
10:53 AM 44.1 °F 41.5 °F 35.1 °F 71% 30.01 in 10.0 mi South 4.6 mph - N/A   Partly Cloudy
11:53 AM 45.0 °F 40.1 °F 34.0 °F 65% 30.02 in 10.0 mi SSE 9.2 mph - N/A   Mostly Cloudy
12:53 PM 46.9 °F - 33.1 °F 59% 30.03 in 10.0 mi Variable 6.9 mph - N/A   Mostly Cloudy
2:53 PM 48.0 °F - 30.9 °F 52% 30.03 in 10.0 mi South 4.6 mph - N/A   Scattered Clouds
3:53 PM 48.0 °F - 30.9 °F 52% 30.03 in 10.0 mi SE 8.1 mph - N/A   Scattered Clouds
4:53 PM 48.0 °F - 30.9 °F 52% 30.03 in 10.0 mi SE 10.4 mph - N/A   Scattered Clouds
5:53 PM 48.0 °F - 30.0 °F 50% 30.02 in 10.0 mi SE 6.9 mph - N/A   Scattered Clouds
6:53 PM 48.0 °F - 30.0 °F 50% 30.02 in 10.0 mi Variable 6.9 mph - N/A   Overcast
7:53 PM 48.9 °F - 30.0 °F 48% 30.02 in 10.0 mi SE 4.6 mph - N/A   Scattered Clouds
8:53 PM 48.0 °F - 32.0 °F 54% 30.02 in 10.0 mi NW 5.8 mph - N/A   Scattered Clouds
9:53 PM 45.0 °F 43.5 °F 33.1 °F 63% 30.02 in 10.0 mi NW 3.5 mph - N/A   Scattered Clouds
10:53 PM 43.0 °F 41.3 °F 33.1 °F 68% 30.03 in 10.0 mi NW 3.5 mph - N/A   Scattered Clouds
11:53 PM 39.0 °F 36.8 °F 32.0 °F 76% 30.04 in 10.0 mi NNW 3.5 mph - N/A   Scattered Clouds